Terug naar catalogus

STARLINK-32032

ActiefCommunicatieVLEO
NORAD 60077·PAYLOAD·🇺🇸 United States

Gelanceerd Jun 19, 2024 vanaf Vandenberg Space Force Base

Loading…

Volgende Passages (komende 24 uur)

TLE

VersSource: CelesTrak SupGP

Epoch: Sep 14, 2026, 21:03 UTC

1 60077C 24113U   26257.87756944  .00021211  00000+0  62636-3 0  2572
2 60077  53.1577 195.9811 0001318 106.2613  20.1154 15.34396603    10

Volg STARLINK-32032 in realtime met AllMySat

Download on the App Store